94P/Russell 4 (2023)

Japanese version
Home page
Updated on January 20, 2022

---------------------------------------------------------------------

* Profile

* Pictures

* Orbital Elements

Epoch 2021 July 5.0 TT = JDT 2459400.5
T 2023 May 21.41129 TT                                  Rudenko
q   2.2274752            (2000.0)            P               Q
n   0.15004767     Peri.   92.46136     -0.95242236     -0.28726644
a   3.5073832      Node    70.85840     +0.21875643     -0.87695921
e   0.3649182      Incl.    6.18799     +0.21221985     -0.38525386
P   6.57
From 1529 observations 1984 Mar. 4-2021 Oct. 4, mean residual 0".6.
     Nongravitational parameters A1 = -0.03, A2 = +0.0023.

* Finding Charts

* Magnitudes Graph

        H = 14.5  G = 0.15             [    ,-210]  (             - 2022 Oct. 23)
        m1 = 3.0 + 5 log d + 35 log r  [-210, 155]  (2022 Oct. 23 - 2023 Oct. 23)
        H = 14.5  G = 0.15             [ 155,    ]  (2023 Oct. 23 -             )

---------------------------------------------------------------------

The orbital elements are published on M.P.E.C. 2021-T130.
The charts are made with StellaNavigator Ver.10 (AstroArts).
The magnitudes graphs are made with Comet for Windows.

---------------------------------------------------------------------

Copyright(C) Seiichi Yoshida (comet@aerith.net). All rights reserved.